GEFSSE_500_meanwind_036.txt.gz
Wind_Speed
14 13 13 12 11 10 10 10 10 11 11 12 13 13 14 15 15 15 15 16 16 17 17 18 19 19 18 18 17 16 15 15 14 14 14 15 15 16 16 16 17 16 17
14 13 13 12 11 11 10 10 11 11 12 13 14 14 14 15 15 15 15 15 16 17 18 19 20 20 20 19 18 18 17 16 16 15 15 15 16 16 16 16 17 17 17
15 15 14 13 13 12 12 12 12 12 13 14 14 14 15 15 15 16 16 16 16 17 17 18 18 19 18 18 18 18 18 17 17 16 16 16 16 17 17 17 17 18 17
16 16 15 15 14 13 13 12 13 13 13 13 14 14 14 15 15 16 16 16 17 17 18 18 17 17 17 17 17 18 18 18 18 17 17 17 17 17 17 17 18 18 17
18 17 17 16 16 15 13 13 13 13 13 14 14 15 15 15 16 16 17 17 18 18 18 18 18 18 18 18 18 18 18 18 18 18 18 18 18 18 18 18 18 18 17
19 19 19 18 17 16 15 14 13 14 14 15 16 17 17 17 17 17 18 18 19 19 19 19 19 19 19 19 18 18 18 18 18 18 18 18 18 18 18 18 18 18 18
20 20 20 19 18 17 16 16 15 16 16 17 18 19 19 19 18 18 19 19 19 19 19 19 19 19 19 19 19 19 18 18 18 18 18 18 18 18 19 19 20 20 20
22 22 21 21 20 19 18 18 18 18 19 19 19 20 20 20 19 19 19 19 19 19 19 19 19 20 20 20 19 19 18 18 18 17 17 17 17 18 19 19 20 21 22
24 24 23 22 21 21 21 21 21 21 21 21 21 21 21 21 20 20 20 20 20 20 19 19 20 20 20 20 19 19 18 18 17 16 16 16 17 18 18 19 20 22 23
26 26 25 24 23 23 23 24 24 24 24 24 23 22 22 21 21 21 21 21 21 21 20 20 20 20 20 20 20 19 19 18 18 18 17 17 18 18 18 19 20 21 22
28 27 26 26 25 25 25 26 26 26 25 25 24 24 23 22 22 22 22 22 22 22 21 21 20 20 21 21 21 21 20 20 19 19 19 19 19 20 20 20 21 22 22
29 28 28 27 27 27 27 28 27 27 26 25 25 25 24 23 23 23 24 24 24 23 22 21 21 21 22 23 23 23 22 22 21 21 21 21 21 21 21 21 21 22 22
30 29 29 29 29 29 28 28 27 27 26 26 25 25 25 24 24 24 25 25 25 24 23 23 23 23 24 24 25 25 25 24 23 23 24 23 23 23 22 23 23 23 23
30 30 30 30 30 29 29 28 27 26 26 26 26 25 26 26 25 25 26 26 26 26 25 25 25 26 26 26 26 27 27 27 26 25 26 25 25 24 24 24 24 24 24
31 30 30 30 30 29 29 28 27 27 27 27 27 27 27 27 27 27 27 27 27 27 27 28 28 28 28 28 28 28 28 29 28 27 28 28 27 27 26 26 26 25 24
31 30 30 30 29 29 28 28 28 28 28 28 28 29 30 30 30 30 30 29 29 30 30 31 31 31 30 30 30 30 30 30 30 28 29 29 29 29 28 27 27 26 25
31 31 31 30 30 29 29 29 29 29 30 30 30 31 32 32 32 32 33 33 32 33 33 33 34 34 34 33 33 32 32 32 32 30 29 30 31 30 30 29 28 26 25
32 32 32 31 30 30 30 30 30 31 31 32 33 33 34 35 36 35 35 36 37 37 37 37 37 37 37 37 36 35 35 34 34 33 31 30 31 32 31 30 29 28 26
33 33 33 32 31 31 32 32 32 32 33 34 35 36 37 38 38 39 39 39 40 40 41 41 41 41 41 41 40 39 38 37 36 35 33 32 32 33 33 32 31 30 28
34 34 34 34 33 33 34 34 34 34 35 36 38 39 40 40 41 42 42 42 42 43 43 44 44 44 44 44 44 43 42 40 39 38 36 35 34 34 34 34 33 33 32
34 35 35 35 35 35 35 36 36 37 37 39 40 41 42 43 44 44 45 45 45 46 46 46 47 47 47 48 48 47 46 44 42 41 40 38 37 36 36 36 36 35 35
34 35 35 36 36 36 37 38 39 40 40 40 42 43 44 45 47 48 49 49 49 49 49 49 50 50 50 51 51 51 50 48 45 44 43 42 40 39 39 39 39 38 38
34 34 35 36 37 38 39 39 40 41 42 42 43 44 45 47 48 50 51 52 53 53 53 53 53 53 53 53 54 54 53 50 49 47 46 45 44 43 42 42 42 42 41
35 35 36 36 37 38 39 40 41 42 43 44 45 45 46 47 49 50 51 53 55 56 56 56 56 56 56 56 56 55 55 54 52 50 49 48 47 46 45 45 44 44 44
37 37 37 38 38 38 39 40 42 43 43 44 45 46 47 48 49 50 52 54 55 57 58 59 60 60 59 59 58 58 58 57 55 54 52 50 49 49 48 47 47 46 45
38 39 39 39 39 39 40 40 41 42 43 44 45 45 46 48 49 50 52 54 56 58 59 60 62 62 62 62 61 60 59 59 58 57 55 53 52 51 51 51 50 49 48

GEFSSE_500_meanwind_042.txt.gz
Wind_Speed
17 16 15 14 12 10 8 7 6 6 6 6 7 8 9 10 11 11 11 12 12 13 13 14 14 15 15 15 14 14 13 14 14 15 15 15 16 16 16 16 15 15 15
17 16 15 13 11 9 8 7 6 6 6 7 8 9 10 11 12 12 13 13 14 14 14 15 15 15 15 14 14 14 14 15 15 16 16 16 17 17 17 16 16 16 15
17 16 14 12 10 9 7 7 7 7 8 8 9 10 11 12 12 12 13 13 14 14 15 15 15 15 15 14 14 15 15 16 17 17 17 18 17 17 17 17 17 16 16
15 14 13 11 10 9 8 8 8 8 9 9 10 10 11 12 12 13 13 13 14 14 15 15 16 16 15 16 16 16 17 18 18 17 18 18 18 18 18 18 17 17 16
16 15 13 12 11 10 9 9 10 10 10 11 11 12 12 13 13 14 14 14 14 15 15 15 16 16 16 16 16 16 17 18 19 19 19 19 19 19 19 18 18 17 17
17 16 14 13 12 12 11 11 11 11 11 12 13 14 14 15 15 15 15 15 14 15 15 16 16 16 16 16 17 17 18 18 18 18 19 19 19 19 19 18 18 18 18
19 17 16 15 14 14 14 14 13 13 13 13 14 15 16 16 16 16 16 15 15 15 16 16 16 16 16 17 17 18 18 18 18 18 18 18 18 18 18 18 18 18 18
21 19 18 17 17 17 16 16 16 15 15 15 15 16 17 17 17 17 17 16 16 16 17 17 17 17 17 17 18 18 18 18 18 18 18 18 17 17 17 17 17 18 18
22 21 20 20 20 19 19 18 18 17 17 17 16 16 17 17 17 17 17 17 17 17 17 18 18 18 18 18 18 19 19 19 19 19 18 18 18 18 18 18 18 18 19
24 23 23 23 22 22 21 20 19 19 18 18 18 18 17 17 18 18 18 18 18 18 19 19 19 19 19 19 19 20 20 20 20 19 19 19 19 19 19 19 20 20 20
26 26 25 25 25 24 23 22 21 20 20 20 20 19 18 18 18 18 18 19 19 20 20 21 21 21 21 21 21 21 21 22 22 21 21 21 21 21 21 21 21 21 21
28 28 27 27 27 26 25 24 23 22 22 22 21 20 19 19 19 19 20 20 20 21 22 23 23 23 23 23 23 23 23 24 24 24 23 23 23 23 23 23 23 23 23
31 30 29 29 29 28 27 25 24 24 24 23 23 22 21 20 20 21 21 22 22 23 24 24 25 25 26 26 26 26 25 25 26 26 26 25 25 25 25 25 24 24 24
33 32 31 31 30 29 28 26 25 25 25 24 24 23 22 21 21 22 23 23 24 25 26 26 27 27 28 29 29 29 28 27 27 28 28 28 27 27 27 27 27 26 26
35 33 32 32 31 30 29 28 26 26 25 25 24 24 23 23 23 24 25 26 27 28 28 29 29 29 30 31 32 32 32 31 30 30 30 30 30 29 29 28 28 28 28
35 34 33 33 31 30 29 29 28 27 27 26 25 25 25 25 25 26 27 28 29 30 31 31 32 32 32 33 34 35 35 34 34 33 33 32 32 32 31 30 30 30 30
36 35 35 34 32 31 30 30 29 28 27 27 27 26 27 28 28 28 29 29 31 32 32 33 34 35 35 36 37 38 38 37 37 37 36 36 35 35 34 33 32 32 31
37 36 36 35 33 32 31 30 30 29 28 28 28 28 29 30 30 31 31 32 33 34 34 35 36 37 38 39 40 41 41 41 40 40 39 39 38 38 37 36 35 34 34
38 37 36 35 34 33 32 31 30 30 29 29 30 31 31 32 33 33 34 35 36 36 37 38 39 40 41 42 43 43 44 44 44 44 43 42 42 41 40 40 38 37 36
38 37 36 35 34 34 33 33 32 32 32 32 32 33 34 34 35 36 37 38 39 39 40 41 42 43 43 44 45 46 46 46 47 46 46 46 45 45 44 43 42 41 40
39 38 37 36 36 35 35 34 34 34 34 34 35 36 36 37 38 38 39 40 41 42 42 43 44 45 46 47 48 48 48 49 49 49 49 49 48 48 47 46 45 44 43
39 39 39 38 38 37 36 36 36 36 36 36 37 37 38 39 40 41 42 42 43 44 45 46 46 47 48 49 50 51 51 51 50 51 52 52 51 50 49 48 47 47 46
40 40 40 40 39 38 38 37 37 37 37 38 38 39 39 41 42 43 44 45 46 46 47 47 48 49 49 50 51 53 54 54 54 54 55 54 53 52 51 50 49 49 49
41 42 41 41 40 39 38 37 37 37 38 38 39 40 41 42 43 44 45 46 47 48 48 48 49 50 51 51 53 54 55 56 57 56 56 56 55 55 54 53 52 51 51
42 42 42 41 40 39 38 38 37 38 38 39 40 41 42 43 43 44 45 46 47 47 48 48 49 50 51 52 53 54 56 57 58 59 59 59 59 58 58 57 55 54 53
41 42 42 41 40 39 39 39 39 40 41 42 43 43 43 43 44 45 45 45 46 46 47 48 49 50 51 52 54 55 57 59 60 62 62 62 62 61 60 59 57 56 55

GEFSSE_500_meanwind_048.txt.gz
Wind_Speed
14 14 13 12 11 10 9 9 7 6 5 4 4 5 5 6 7 8 9 9 10 10 11 11 12 12 12 12 12 12 12 13 14 15 15 16 16 17 17 17 18 18 17
15 15 14 13 12 11 10 9 8 6 5 4 5 6 7 7 8 9 9 10 10 11 11 12 12 12 13 13 13 13 14 15 15 16 16 17 17 18 18 18 19 19 19
16 15 14 13 12 11 10 9 7 6 5 5 5 6 7 8 9 10 10 11 11 11 12 12 13 13 14 14 14 15 15 16 16 17 17 18 18 19 19 19 19 19 19
16 14 13 13 12 11 10 8 7 6 5 6 6 7 8 9 11 12 12 12 12 12 13 13 13 14 14 15 15 15 16 16 17 18 19 19 19 19 19 19 20 20 19
17 16 14 12 11 10 9 8 7 6 6 7 8 9 10 11 12 13 14 14 14 14 14 14 14 14 15 15 16 16 17 17 18 19 19 19 19 19 20 20 20 19 19
19 17 15 13 11 10 9 8 7 7 8 9 10 11 12 13 14 15 15 15 15 15 15 15 15 15 16 16 17 18 19 19 20 20 20 20 20 20 20 20 20 20 20
20 18 16 14 12 11 10 9 8 8 9 10 11 12 14 15 16 16 16 16 16 16 15 15 16 16 17 18 19 19 20 21 21 22 22 22 22 22 22 21 21 21 20
20 18 16 15 13 12 11 10 10 10 10 11 12 13 15 16 17 17 17 17 17 17 16 16 16 17 18 19 20 20 21 22 23 23 23 24 24 23 23 23 23 22 22
22 20 18 16 15 13 12 12 12 12 12 13 13 14 15 16 17 18 18 18 18 17 17 17 17 18 19 20 21 22 22 23 24 24 25 25 25 25 25 25 24 24 23
23 21 19 18 16 15 14 14 14 14 14 14 15 15 16 17 17 18 18 19 19 19 19 19 19 19 20 21 22 23 24 25 25 26 26 26 26 27 27 27 26 26 26
25 23 21 19 18 17 16 16 16 16 16 16 17 17 17 18 18 18 18 19 19 20 20 20 20 21 22 23 24 25 26 26 27 27 28 28 28 28 28 28 28 28 28
27 25 23 21 20 19 18 18 18 18 18 18 18 19 19 19 19 19 19 20 20 20 21 21 22 22 23 24 25 26 28 29 29 30 30 30 30 30 30 30 30 30 29
28 27 25 24 23 22 21 20 20 20 20 20 20 20 21 21 21 20 20 21 21 22 22 23 23 24 25 26 27 28 29 30 31 32 32 32 32 32 32 32 32 32 31
30 28 27 26 25 25 24 23 22 22 22 21 21 22 22 22 22 22 22 22 23 23 24 24 25 26 27 28 29 30 31 32 33 34 34 35 35 35 35 35 35 34 34
32 30 30 29 28 27 26 26 25 24 24 23 23 23 23 24 24 24 24 24 25 25 25 26 27 28 29 30 31 32 33 34 35 36 37 37 37 38 37 37 37 37 37
34 33 32 32 31 30 29 28 27 27 26 25 25 25 25 25 26 26 26 26 27 27 28 28 29 30 31 32 34 35 36 36 37 38 39 39 40 40 40 40 40 39 39
37 36 35 34 33 32 31 30 29 29 28 28 27 27 27 27 27 27 28 28 29 30 30 30 32 33 34 35 37 38 39 39 40 40 41 42 42 42 43 43 43 42 41
39 38 37 36 35 34 33 33 32 31 30 30 29 29 29 29 29 29 29 30 31 31 32 33 34 36 37 38 40 41 41 42 42 43 43 44 44 44 45 45 45 44 44
41 40 39 38 37 36 36 35 34 33 33 32 32 31 31 31 31 31 31 32 33 34 34 36 37 39 40 41 43 43 44 44 45 45 45 45 46 46 46 46 46 46 46
43 42 41 40 39 38 38 37 36 36 35 34 34 33 33 33 33 33 33 34 35 36 37 39 40 41 43 44 45 45 46 46 46 46 46 47 47 47 48 48 48 47 47
45 44 43 42 41 41 40 39 39 38 37 36 35 35 34 35 35 35 36 36 37 38 40 41 43 44 45 47 47 47 47 47 46 47 47 47 47 48 48 48 48 48 48
47 46 45 44 43 43 42 41 41 39 38 37 37 36 36 37 37 38 38 39 40 41 42 43 45 47 47 48 49 49 48 46 46 47 47 46 47 47 48 49 50 50 51
46 46 46 45 44 44 43 42 41 41 40 39 38 38 38 39 39 39 40 40 42 43 44 46 48 49 49 49 49 49 49 48 47 46 45 46 47 48 50 51 51 52 53
45 46 46 46 45 45 44 44 43 42 41 40 40 40 41 41 41 41 41 42 43 45 47 49 50 50 50 49 49 49 49 49 48 47 45 46 48 50 51 53 54 55 56
44 45 45 46 46 46 46 45 44 43 43 42 41 42 42 42 42 42 42 43 45 47 49 50 50 50 49 49 49 49 49 49 48 48 46 47 49 51 52 54 55 56 57
43 44 45 46 46 46 46 46 45 45 44 44 43 43 43 43 43 44 44 46 48 49 50 49 49 48 48 48 48 48 48 47 47 48 48 47 49 51 52 54 55 55 56

GEFSSE_500_meanwind_054.txt.gz
Wind_Speed
14 13 12 11 9 8 6 5 5 4 4 3 2 2 1 2 3 4 5 6 6 7 8 8 9 9 10 10 11 11 11 12 13 13 14 15 15 16 17 17 18 18 18
14 13 12 11 9 8 7 6 5 4 4 3 2 1 1 2 3 4 6 7 7 8 8 9 9 10 11 11 11 12 12 12 13 14 15 16 16 17 17 18 18 19 19
15 14 12 11 9 8 7 6 5 5 4 3 2 2 2 3 4 6 7 7 8 8 9 9 10 10 11 11 12 12 13 13 14 15 16 17 17 18 18 19 19 20 20
16 14 13 11 10 9 8 7 6 5 4 3 3 2 3 4 5 7 8 8 9 9 9 10 10 11 11 12 12 13 14 15 15 16 17 18 18 19 19 20 20 21 21
18 16 14 12 11 10 9 8 7 6 5 4 3 3 4 5 6 7 8 9 10 10 10 10 10 11 12 12 13 14 15 16 16 17 18 19 20 20 21 22 22 22 22
19 17 15 14 12 11 10 8 7 6 5 4 4 4 5 6 7 8 9 10 10 10 10 10 11 11 12 12 13 14 15 16 17 18 19 20 21 22 23 23 23 24 24
21 18 17 16 14 13 11 10 8 7 6 5 5 6 7 8 9 9 10 11 11 11 11 11 11 12 12 13 14 15 16 17 19 20 21 22 23 23 24 25 25 25 25
23 21 19 17 16 15 13 12 10 8 7 6 6 7 8 9 10 11 11 12 12 12 12 12 12 13 14 14 15 17 18 19 20 21 22 23 24 25 25 26 26 26 26
26 23 20 19 18 17 15 13 12 10 9 8 8 8 9 10 11 11 12 12 13 13 13 13 14 15 15 16 17 18 19 20 21 23 24 25 26 27 27 27 27 27 28
27 25 22 21 20 19 17 15 13 12 10 9 9 9 10 11 11 12 12 13 13 14 14 15 15 16 17 18 18 19 20 21 22 24 25 26 27 28 29 29 29 29 29
29 27 24 23 22 20 19 17 15 13 11 10 10 10 11 12 12 12 13 13 13 14 14 15 16 17 18 19 19 20 21 22 23 24 26 27 28 29 30 30 31 31 31
31 29 27 24 23 22 21 19 17 15 13 12 12 12 13 13 13 14 14 14 14 15 15 16 17 18 19 20 21 22 23 24 25 26 27 29 30 31 32 32 33 33 32
34 31 29 27 25 24 22 21 19 17 16 14 14 14 14 15 15 15 15 16 16 16 17 17 18 19 20 22 23 24 25 26 27 29 30 31 32 33 34 34 34 34 34
35 33 31 29 27 26 25 23 21 20 18 17 16 16 16 17 17 17 17 18 18 18 19 19 20 21 22 24 25 26 27 29 30 32 33 34 35 36 36 36 36 36 36
37 35 34 31 30 29 27 25 24 22 20 19 19 19 19 19 19 19 20 20 20 20 21 22 22 23 25 26 27 28 30 31 32 34 35 37 38 38 38 38 38 38 37
39 37 35 34 33 31 30 28 26 24 23 22 22 21 22 22 22 22 22 22 22 22 23 24 25 26 27 28 30 31 32 33 35 36 38 39 40 40 40 39 38 38 38
40 39 37 36 35 34 33 31 29 27 26 25 25 25 25 24 24 24 25 25 25 25 26 27 28 29 30 31 32 34 35 36 37 39 40 41 41 41 41 40 39 39 38
41 40 39 38 37 36 35 34 32 31 30 29 28 28 28 27 27 27 27 28 27 27 28 29 30 31 32 34 35 36 37 38 40 41 42 43 43 43 42 41 40 39 39
42 41 41 40 40 39 38 36 35 34 33 32 32 31 30 30 30 29 30 30 30 30 31 32 33 34 35 36 37 38 39 40 42 43 45 45 44 44 42 42 41 40 39
43 42 42 42 42 41 40 39 38 37 36 35 35 34 33 33 32 32 32 33 33 33 33 34 35 36 37 38 39 40 41 42 44 46 46 45 45 43 43 42 41 41 40
44 43 43 43 43 42 41 41 40 40 39 38 37 37 36 36 35 35 34 34 35 35 36 37 38 39 40 41 41 41 42 44 45 46 46 46 44 43 43 42 41 41 41
47 46 45 44 44 43 43 43 43 43 42 41 40 40 39 38 38 37 37 37 37 38 38 39 40 41 42 42 43 44 44 45 45 46 45 45 44 44 43 43 42 42 42
50 49 48 47 47 46 46 46 45 44 43 43 42 42 41 41 40 39 39 39 40 40 40 41 42 43 43 43 45 46 47 47 46 44 43 43 43 43 43 42 42 43 43
51 51 50 49 48 48 48 48 47 46 45 45 44 44 43 42 42 42 42 42 42 42 43 43 44 44 45 45 46 47 48 48 48 46 43 42 42 42 42 42 43 44 44
50 50 50 50 50 49 48 48 48 48 47 47 46 46 45 44 44 44 44 44 44 44 44 45 45 46 46 46 47 48 48 48 47 46 44 43 42 42 43 43 43 43 43
48 49 50 50 50 49 49 49 48 48 48 48 48 47 47 47 46 46 46 46 46 45 45 46 46 46 47 47 48 49 48 47 46 45 44 43 42 42 43 43 43 43 43

GEFSSE_500_meanwind_060.txt.gz
Wind_Speed
16 14 12 11 11 10 9 8 7 6 4 3 2 2 2 1 1 1 1 2 3 4 5 6 6 7 8 9 9 10 10 11 12 12 13 14 15 16 17 18 18 19 19
16 15 13 12 12 11 10 9 7 6 5 4 3 3 2 2 1 1 2 3 4 4 5 6 6 7 8 8 8 9 10 11 12 12 13 14 15 16 17 18 19 20 20
18 16 14 13 11 11 10 9 8 7 6 5 5 4 3 2 1 2 3 4 4 5 5 6 6 7 7 8 8 9 9 10 11 12 13 14 16 17 18 19 20 21 21
19 17 15 13 11 10 10 9 9 8 7 6 6 5 4 3 2 3 4 4 5 5 6 6 6 6 7 7 8 8 9 10 11 12 13 15 16 17 18 20 21 22 22
21 18 16 14 12 11 10 10 9 9 8 7 7 6 5 4 3 3 4 5 5 6 6 6 6 6 6 7 8 8 9 10 11 13 14 15 16 18 19 21 22 23 24
23 20 17 15 13 12 11 11 10 10 9 8 7 7 5 4 4 3 4 5 5 6 6 6 6 6 7 7 8 9 10 11 12 13 15 16 17 19 21 22 23 24 25
24 21 18 17 15 13 12 11 11 10 10 9 8 7 6 5 5 4 5 5 5 6 6 6 6 7 7 8 9 10 11 12 13 14 16 17 19 20 22 24 25 26 26
25 23 19 18 16 15 14 13 12 11 10 10 9 8 7 6 6 5 5 5 6 6 6 6 7 7 8 9 10 11 12 14 15 16 18 19 21 22 24 25 26 27 28
27 24 21 19 18 17 16 15 14 13 12 11 10 9 8 7 7 7 6 7 7 7 7 8 8 9 10 11 12 13 14 15 17 18 20 21 23 24 25 26 28 29 29
28 26 23 21 20 19 18 17 16 15 14 12 11 10 9 9 8 8 8 8 8 9 9 9 10 11 11 12 13 15 16 17 19 20 21 23 24 26 27 28 30 31 31
29 27 26 24 22 21 20 19 18 17 16 14 13 12 11 10 10 9 9 10 10 10 11 11 12 13 13 14 15 16 17 19 20 22 23 25 26 27 29 30 31 32 33
31 29 27 25 24 23 22 22 21 20 18 17 15 14 13 12 11 11 11 11 11 12 12 13 14 14 15 16 17 18 19 20 21 23 25 26 28 29 31 32 33 34 34
33 32 29 27 25 24 24 24 23 22 20 19 17 16 15 14 13 13 12 12 12 13 14 15 15 16 17 18 19 20 21 23 24 25 27 28 30 31 32 33 35 35 35
35 33 31 29 27 25 25 25 25 24 23 21 20 18 17 16 15 14 14 14 14 15 16 16 17 18 19 20 21 22 23 25 26 27 29 30 32 33 34 35 36 37 37
37 35 33 32 30 27 26 26 26 26 25 24 22 21 19 18 17 16 16 17 17 17 18 19 19 20 21 22 23 24 25 27 28 30 31 32 34 35 36 37 38 38 38
40 38 36 34 32 30 29 28 28 27 27 26 24 23 22 21 20 19 19 19 19 19 20 21 21 22 23 24 25 26 27 29 30 32 33 34 35 36 37 39 39 39 39
42 40 38 37 35 33 32 31 30 29 29 28 27 26 25 23 22 22 21 21 21 22 22 23 24 24 25 26 27 28 30 31 32 34 35 36 36 37 39 40 41 40 40
44 42 41 39 38 36 35 34 32 31 31 31 30 29 28 26 25 25 24 24 24 24 24 25 26 27 28 29 30 31 32 33 34 36 37 37 38 39 40 41 42 42 40
45 44 43 42 41 39 37 36 34 33 33 33 33 32 31 30 29 28 28 28 27 27 27 28 28 29 30 31 32 33 34 35 36 37 38 39 40 41 42 43 43 42 41
46 45 44 43 42 41 39 38 36 35 35 35 35 34 34 33 32 32 31 31 30 30 30 31 31 32 32 33 34 35 36 37 38 38 39 40 42 42 43 44 43 42 42
46 46 45 44 43 42 41 40 38 37 37 37 37 38 37 36 35 35 34 34 34 33 33 34 34 35 35 36 37 37 37 38 39 39 40 41 43 44 44 44 44 43 42
47 45 44 45 44 44 43 42 40 39 39 39 39 39 40 39 38 38 38 38 37 37 37 37 37 38 38 39 40 40 39 38 39 40 40 41 43 44 45 45 45 43 42
48 47 46 45 45 44 44 43 42 42 41 40 40 41 41 41 41 41 41 41 40 40 40 40 40 41 41 41 41 42 42 41 41 41 41 42 43 44 44 45 44 43 42
47 48 48 47 46 46 45 44 44 43 43 43 44 44 44 44 44 44 45 44 44 44 43 43 43 43 43 42 43 43 44 44 43 43 43 44 44 44 45 44 44 43 42
46 47 48 49 49 49 48 47 46 46 46 47 47 46 46 47 47 47 47 47 46 46 45 45 45 45 44 44 44 43 43 44 44 44 44 44 45 45 45 44 43 42 41
45 47 48 48 48 49 49 49 49 49 49 49 48 48 49 49 48 48 48 48 48 47 46 46 46 45 45 44 44 44 44 44 44 44 44 44 45 45 44 43 42 41 41

GEFSSE_500_meanwind_066.txt.gz
Wind_Speed
20 18 16 14 12 11 9 8 8 7 6 5 5 4 4 4 4 4 4 4 5 5 4 4 4 4 4 3 3 3 3 4 5 5 7 8 9 10 12 13 14 16 17
22 20 18 16 14 12 11 9 9 8 7 7 6 6 5 5 5 5 5 5 5 5 5 5 5 5 4 4 3 3 3 4 5 5 7 8 9 11 12 13 15 16 17
24 22 20 17 15 14 12 11 10 10 9 9 8 7 7 6 5 5 5 5 6 6 6 6 6 5 5 4 4 4 4 4 5 6 7 8 9 11 12 14 15 17 18
26 23 21 19 16 15 13 12 11 11 11 10 10 9 8 7 7 6 6 6 6 6 6 6 6 6 5 5 4 4 5 5 5 6 8 9 10 11 13 14 16 17 19
27 25 22 20 18 16 14 13 13 12 12 12 11 10 10 9 8 7 7 7 7 7 7 7 6 6 5 5 5 5 5 6 6 7 8 9 11 12 14 15 17 18 20
29 26 23 21 19 17 15 14 14 13 13 13 12 12 11 10 9 8 8 7 7 7 7 7 7 6 6 5 5 6 6 6 7 8 9 10 12 13 15 16 18 20 21
30 27 24 22 20 18 16 15 15 14 14 14 13 13 12 11 10 9 8 8 8 8 7 7 7 7 6 6 6 6 7 7 8 9 10 11 13 15 17 18 20 21 23
32 29 26 24 21 19 18 16 15 15 15 15 15 14 14 13 11 10 9 9 9 8 8 8 8 8 7 7 7 7 8 8 9 10 12 13 15 16 18 20 21 23 24
33 30 27 25 23 21 19 17 16 16 16 16 16 16 15 14 12 11 10 10 9 9 9 8 8 8 8 8 8 9 9 10 11 12 14 15 16 18 20 21 23 24 25
35 32 29 26 24 22 20 19 17 17 17 17 17 17 16 15 13 12 11 10 10 10 9 9 9 9 9 9 9 10 11 12 13 14 16 17 18 20 21 23 24 26 27
37 34 31 28 25 23 21 20 18 18 18 18 18 18 17 15 14 13 12 11 11 11 10 10 10 10 10 10 11 12 12 13 14 16 17 18 20 21 23 24 26 27 28
37 35 32 30 27 24 22 20 19 19 19 19 19 19 18 17 16 15 14 13 12 12 12 11 12 12 12 12 13 13 14 15 16 18 19 20 22 23 25 26 27 28 29
39 36 34 32 29 26 23 21 20 20 20 20 20 20 20 19 18 17 16 15 14 14 14 13 13 13 14 14 15 15 16 17 18 20 21 23 24 25 26 28 29 30 30
41 38 35 32 29 27 24 22 21 21 20 21 21 22 21 21 20 19 18 17 16 16 16 15 15 15 16 16 17 17 18 20 21 22 23 25 26 27 28 29 30 31 32
40 39 36 33 30 28 26 23 22 21 22 22 22 23 23 23 22 21 20 19 19 18 18 18 18 18 18 18 19 20 21 22 23 24 25 27 28 29 30 30 31 32 32
39 37 35 32 29 28 26 25 23 22 22 23 23 23 24 24 23 23 22 22 21 20 20 20 20 20 20 20 21 22 23 24 25 26 27 29 30 31 32 32 32 32 33
38 36 36 33 31 30 28 26 24 23 23 23 24 24 25 25 25 25 24 24 23 23 22 22 22 22 22 23 24 24 25 26 28 29 30 31 32 33 33 33 33 34 34
37 36 36 35 34 32 30 28 26 25 25 25 25 25 26 26 27 27 27 26 26 25 25 25 25 25 26 26 26 27 28 29 30 31 32 33 34 34 34 34 34 34 35
41 38 35 34 35 34 33 31 29 28 27 27 27 27 27 28 28 29 29 29 28 28 28 28 28 28 29 29 29 30 31 32 33 34 35 36 36 36 36 35 35 35 35
40 40 39 37 34 34 34 32 32 32 31 30 30 30 29 29 30 30 31 31 31 31 31 31 31 31 31 32 32 33 34 35 35 36 37 38 38 37 36 36 36 36 36
41 40 40 40 39 37 35 34 32 33 33 33 33 33 33 33 33 32 32 33 33 34 34 34 34 34 34 35 35 35 36 37 38 39 39 39 39 38 37 37 37 37 37
41 41 41 40 39 39 39 39 38 37 36 36 35 35 36 36 36 36 36 36 35 35 36 37 37 37 37 38 39 40 39 39 40 41 41 40 39 39 38 37 37 38 38
40 40 42 42 41 41 41 40 40 39 39 38 38 38 38 37 37 37 37 38 38 38 38 39 40 40 40 41 42 43 43 41 40 40 40 40 40 39 38 38 38 38 38
40 40 40 41 42 42 41 40 41 41 40 40 40 40 40 40 39 39 39 39 40 40 40 41 41 42 42 43 44 44 45 45 44 42 40 39 39 39 38 38 38 38 39
41 41 41 41 41 42 43 43 42 42 42 42 42 42 41 41 41 41 41 42 42 43 43 44 44 44 45 45 45 45 45 45 44 43 41 40 40 39 39 39 38 39 39
40 41 42 43 43 43 43 44 43 43 44 44 45 44 44 44 44 44 44 44 45 45 46 46 47 47 46 46 46 45 45 44 43 43 42 41 41 41 40 40 40 40 40

GEFSSE_500_meanwind_072.txt.gz
Wind_Speed
27 24 21 19 17 15 14 13 12 10 9 8 7 6 6 5 5 5 5 5 5 6 7 7 8 8 8 8 7 6 5 5 5 5 5 6 7 8 10 11 13 14 16
29 26 23 21 19 17 16 14 13 12 10 10 9 8 7 7 6 6 6 6 6 7 7 8 8 8 8 8 7 6 6 5 5 5 6 6 7 8 10 12 14 15 17
30 28 25 23 21 19 18 16 15 13 12 11 10 9 9 8 7 7 7 7 7 7 8 8 8 8 8 8 7 7 6 6 6 6 6 7 8 9 11 13 14 16 17
32 30 27 25 23 21 20 18 16 15 14 13 12 11 10 9 9 8 8 7 7 8 8 8 9 9 8 8 7 7 6 6 6 6 7 8 9 10 12 13 15 16 18
34 31 29 27 25 23 21 20 18 16 15 14 13 13 12 11 10 10 9 9 8 8 8 9 9 9 8 8 7 7 7 7 7 7 8 9 10 11 12 14 15 17 19
36 34 31 29 26 25 23 21 20 18 17 16 15 15 14 13 12 11 10 10 9 9 9 9 9 9 8 8 8 7 7 8 8 8 8 9 10 12 13 15 16 18 20
38 36 33 31 28 26 25 23 21 20 19 18 17 16 15 15 14 13 12 11 10 9 9 9 9 9 8 8 8 8 8 8 8 9 10 10 11 13 14 16 18 19 21
41 38 35 33 31 29 27 24 23 22 20 19 18 18 17 16 15 14 13 12 11 10 10 9 10 9 9 9 8 9 9 9 9 10 10 11 13 14 16 17 19 20 22
44 41 38 35 33 30 28 26 24 23 22 20 19 19 18 17 16 15 14 13 12 11 11 10 10 10 9 9 9 9 10 10 10 11 11 12 14 15 17 18 20 22 23
46 43 40 38 35 32 30 27 26 24 23 21 20 20 19 18 17 16 15 14 13 12 12 11 11 10 10 10 10 10 10 11 11 12 13 14 15 16 18 20 21 23 25
47 45 43 40 37 34 31 29 27 26 24 23 22 21 20 19 19 18 17 16 15 14 13 13 12 12 11 12 12 12 12 13 13 13 14 16 17 18 20 21 23 25 26
48 47 45 43 39 36 33 31 29 27 25 24 23 22 21 20 20 19 18 17 16 16 15 14 14 13 13 13 13 14 14 14 15 16 16 17 18 20 21 23 25 26 28
50 49 47 44 41 38 35 32 30 28 27 25 24 23 22 21 21 21 20 19 18 17 17 16 16 15 15 15 15 16 16 17 17 18 18 19 20 22 23 25 27 28 30
51 51 48 46 43 41 37 34 32 30 28 27 25 24 23 23 22 22 21 21 20 19 19 19 18 18 18 17 18 18 18 19 19 20 21 21 22 24 25 27 29 30 32
52 51 49 47 44 41 39 36 34 32 30 28 26 25 24 24 24 24 23 23 22 22 21 21 20 20 20 20 20 20 21 22 22 23 23 24 25 26 28 29 31 32 34
47 47 47 47 44 41 39 38 36 33 31 30 28 26 26 25 25 25 24 24 24 24 23 23 23 23 23 23 23 23 24 24 25 25 26 27 28 29 30 31 32 34 35
43 45 45 45 42 40 39 39 38 36 34 32 30 28 27 26 26 25 26 26 26 25 25 25 25 25 25 25 26 26 26 27 27 28 29 29 30 31 33 34 35 36 37
40 41 42 43 41 40 40 40 38 37 35 33 31 29 28 27 26 26 26 27 27 27 27 27 27 28 28 28 28 29 29 30 31 31 31 32 33 34 35 36 37 38 38
37 36 37 38 39 40 40 40 38 37 35 34 31 29 29 28 27 26 27 27 28 28 29 29 29 30 30 31 31 32 32 33 33 34 34 35 35 36 37 38 39 40 40
33 33 34 35 36 38 39 39 38 37 35 34 31 30 29 28 27 27 28 28 29 30 30 31 31 32 33 33 33 34 35 35 36 36 37 37 38 39 40 40 41 42 41
30 31 31 32 33 35 37 39 39 38 36 34 33 31 30 29 29 29 29 30 31 31 32 32 33 33 34 35 35 35 36 37 38 39 39 40 41 42 43 43 43 42 41
30 31 31 32 31 31 33 35 35 35 35 34 34 33 32 32 31 31 32 32 32 32 33 33 34 35 36 37 37 37 37 38 38 39 40 42 43 44 44 43 43 42 41
31 31 31 31 31 31 32 34 33 32 32 32 32 32 33 34 34 33 33 34 35 35 35 35 35 36 37 38 39 40 40 39 39 39 41 43 44 43 44 43 42 42 41
32 32 31 31 30 31 31 33 32 32 32 32 33 34 34 35 35 35 35 36 36 36 36 37 38 38 39 40 41 42 42 43 42 42 42 44 44 44 43 43 42 41 41
33 33 33 32 32 31 31 32 32 32 33 34 34 34 35 36 36 37 37 37 37 37 38 39 40 40 41 42 43 43 44 45 46 46 45 44 45 44 43 43 42 42 41
34 33 34 34 34 34 34 34 35 35 35 35 36 36 37 37 37 38 38 38 39 39 39 40 41 42 43 44 44 46 47 47 47 47 46 45 44 43 43 43 42 42 41